Home   Weather   Yuzhno-Sakhalinsk   Past weeks

Flag for Russia Past Weather in Yuzhno-Sakhalinsk, Russia — Yesterday and Last 2 Weeks

Now
43 °F

Passing clouds.


Feels Like: 39 °F
Forecast: 12 / 27 °F
Wind: 6 mph from Southwest

Location: Yuzhno Airport-Sakhalinsk

Current Time: Dec 4, 2016 at 5:14:53 pm

Latest Report: Dec 4, 2016 at 4:30 pm


Visibility: N/A

Pressure: 29.68 "Hg

Humidity: 66%

Dew Point: 32 °F

Location of Yuzhno-SakhalinskLocation

Past Weather in Yuzhno-Sakhalinsk — Graph

°F

Yuzhno-Sakhalinsk Temperature Yesterday

Maximum temperature yesterday: 34 °F (at 2:30 pm)
Minimum temperature yesterday: 16 °F (at 10:30 pm)
Average temperature yesterday: 26 °F

High & Low Weather Summary for the Past Weeks

 TemperatureHumidityPressure
High43 °F (Dec 4, 11:00 am)100% (Nov 19, 8:30 pm)30.39 "Hg (Nov 19, 8:30 pm)
Low-9 °F (Nov 24, 8:30 am)47% (Dec 3, 12:30 pm)29.15 "Hg (Dec 2, 6:30 am)
Average20 °F83%29.94 "Hg
* Reported Nov 19 4:00 pm — Dec 4 4:00 pm, Yuzhno-Sakhalinsk, Weather by CustomWeather, © 2016

Note: Actual official high and low records may vary slightly from our data, if they occured in-between our weather recording intervals... More about our weather records

Advertising

Yuzhno-Sakhalinsk Weather History for the Previous 24 Hours

Scroll right to see more
 ConditionsComfort  
Time TempWeatherWind HumidityBarometerVisibility
4:00 pm
Sun, Dec 4
43 °FPassing clouds.8 mph66%29.68 "HgN/A
3:30 pm43 °FScattered clouds.15 mph71%29.71 "HgN/A
3:00 pm43 °FScattered clouds.15 mph76%29.71 "HgN/A
2:30 pm43 °FPartly sunny.13 mph76%29.71 "HgN/A
2:00 pm43 °FPartly sunny.10 mph76%29.71 "HgN/A
1:30 pm43 °FPartly sunny.13 mph71%29.74 "HgN/A
1:00 pm43 °FPartly sunny.15 mph71%29.74 "HgN/A
12:30 pm43 °FPartly sunny.13 mph71%29.77 "HgN/A
12:00 pm43 °FPartly sunny.15 mph71%29.77 "HgN/A
11:30 am43 °FPartly sunny.10 mph71%29.77 "HgN/A
11:00 am43 °FPartly sunny.10 mph71%29.80 "HgN/A
10:30 am41 °FPartly sunny.10 mph76%29.80 "HgN/A
10:00 am41 °FPartly sunny.13 mph76%29.80 "HgN/A
9:30 am41 °FPartly sunny.10 mph76%29.80 "HgN/A
9:00 am41 °FPartly sunny.13 mph76%29.80 "HgN/A
8:30 am41 °FPassing clouds.10 mph76%29.80 "HgN/A
8:00 am41 °FPassing clouds.15 mph76%29.80 "HgN/A
7:30 am41 °FPassing clouds.8 mph76%29.83 "HgN/A
7:00 am39 °FPassing clouds.6 mph81%29.83 "HgN/A
6:30 am37 °FPassing clouds.6 mph81%29.83 "HgN/A
6:00 am37 °FPassing clouds.6 mph81%29.83 "HgN/A
5:00 am34 °FPassing clouds.8 mph87%29.86 "HgN/A
4:00 am32 °FPassing clouds.6 mph93%29.89 "HgN/A
3:00 am27 °FPassing clouds.8 mph100%29.89 "HgN/A
2:00 am14 °FClear.3 mph92%29.92 "HgN/A
1:00 am14 °FClear.3 mph100%29.95 "HgN/A
12:00 am14 °FClear.3 mph100%29.98 "HgN/A
11:30 pm
Sat, Dec 3
16 °FClear.3 mph93%29.98 "HgN/A
11:00 pm16 °FPassing clouds.3 mph93%29.98 "HgN/A
10:30 pm16 °FPassing clouds.1 mph93%30.01 "HgN/A
10:00 pm18 °FClear.1 mph86%30.01 "HgN/A
9:30 pm19 °FClear.1 mph79%30.01 "HgN/A
9:00 pm21 °FClear.3 mph80%30.01 "HgN/A
8:30 pm21 °FClear.3 mph80%30.04 "HgN/A
8:00 pm21 °FClear.3 mph80%30.04 "HgN/A
7:30 pm21 °FClear.No wind74%30.01 "HgN/A
7:00 pm23 °FClear.1 mph74%30.01 "HgN/A
6:30 pm28 °FClear.6 mph59%30.01 "HgN/A
6:00 pm30 °FClear.8 mph55%30.01 "HgN/A
5:30 pm32 °FPassing clouds.8 mph55%30.01 "HgN/A
5:00 pm32 °FPassing clouds.10 mph55%30.01 "HgN/A
Weather by CustomWeather, © 2016

See weather overviewHow to use our weather pages